Location: Squirrel Cove
(50.1074°N, 124.9139°W)
Time: 12:59:21
(UTC-07:00)

PCSat - Pass Details

Date: 22 May 2022
Orbit: 784 x 795 km, 67.1° (Epoch: 26 June)

Event Time Altitude Azimuth Distance (km) Brightness Sun altitude
Rises 02:27:36 0° 325° (NW) 3,306 13.3 -17.7°
Reaches altitude 10° 02:30:13 10° 333° (NNW) 2,374 12.7 -17.6°
Maximum altitude 02:35:17 38° 41° (NE) 1,205 11.1 -17.3°
Drops below altitude 10° 02:40:19 10° 109° (ESE) 2,363 12.0 -17.1°
Sets 02:42:53 0° 118° (ESE) 3,288 12.7 -16.9°
